GW0861 Weather Reports


Display with metric or nautical units.
time (UTC)temp
F
wind
direction
speed
MPH
gust
MPH
rain 1hr
in
rain 24hr
in
rain mn
in
humidity
%
barometer
mb
20260509090026 46 151 4.0 10.0 0.01 0.09 0.09 94 1009.2
20260509085525 46 164 6.0 13.0 0.00 0.09 0.09 93 1009.3
20260509085027 46 168 10.0 13.0 0.00 0.09 0.09 93 1009.4
20260509084526 46 155 7.0 11.0 0.00 0.09 0.09 93 1009.4
20260509084027 46 151 5.0 7.0 0.00 0.09 0.09 93 1009.3
20260509083526 46 169 4.0 7.0 0.00 0.09 0.09 93 1009.3
20260509083026 46 162 5.0 7.0 0.00 0.09 0.09 93 1009.3
20260509082526 46 151 5.0 6.0 0.00 0.09 0.09 93 1009.2
20260509082026 46 147 4.0 5.0 0.00 0.09 0.09 93 1009.1
20260509081801 46 162 2.0 4.0 0.00 0.09 0.09 93 1009.2
20260509081026 46 162 2.0 3.0 0.00 0.09 0.09 93 1009.2
20260509080803 46 162 1.0 4.0 0.00 0.09 0.09 93 1009.1
20260509080026 46 162 2.0 4.0 0.00 0.09 0.09 93 1009.2
20260509075527 46 162 2.0 4.0 0.00 0.09 0.09 92 1009.3
20260509075301 46 168 2.0 3.0 0.00 0.09 0.09 92 1009.4
20260509074525 46 168 2.0 4.0 0.00 0.09 0.09 92 1009.3
20260509074026 46 168 2.0 5.0 0.00 0.09 0.09 92 1009.5
20260509073526 46 159 3.0 5.0 0.00 0.09 0.09 92 1009.5
20260509073044 46 206 2.0 4.0 0.00 0.09 0.09 92 1009.6
20260509073038 46 178 2.0 5.0 0.00 0.09 0.09 92 1009.6
20260509072025 46 186 0.0 4.0 0.00 0.09 0.09 92 1009.6
20260509071526 46 186 2.0 6.0 0.00 0.09 0.09 92 1009.5
20260509071025 46 221 2.0 6.0 0.00 0.09 0.09 92 1009.7
20260509070526 46 220 4.0 6.0 0.00 0.09 0.09 92 1009.8
20260509070511 46 238 3.0 5.0 0.01 0.09 0.09 92 1009.9
20260509065539 46 207 3.0 5.0 0.01 0.08 0.09 92 1009.8
20260509064525 46 268 3.0 6.0 0.01 0.08 0.09 92 1009.8
20260509064026 46 196 3.0 6.0 0.01 0.08 0.09 92 1009.9
20260509063525 46 243 3.0 6.0 0.02 0.08 0.09 92 1010.0
20260509063025 46 196 3.0 6.0 0.02 0.08 0.09 92 1010.0
20260509062803 46 216 2.0 5.0 0.02 0.08 0.09 92 1010.1
20260509062026 46 241 3.0 6.0 0.02 0.08 0.09 92 1010.4
20260509061802 46 247 4.0 6.0 0.03 0.08 0.09 92 1010.5
20260509061247 46 241 4.0 6.0 0.04 0.08 0.09 92 1010.5
20260509060525 46 234 3.0 7.0 0.04 0.08 0.09 92 1010.6
20260509060025 46 192 3.0 7.0 0.03 0.08 0.08 92 1010.7
20260509055525 47 219 2.0 6.0 0.04 0.05 0.08 92 1010.8
20260509055025 47 204 3.0 6.0 0.04 0.05 0.08 92 1010.7
20260509054525 47 254 2.0 7.0 0.05 0.05 0.08 91 1010.7
20260509054302 47 248 4.0 7.0 0.05 0.05 0.07 91 1010.8
20260509053526 47 254 4.0 6.0 0.05 0.05 0.07 91 1010.8
20260509053026 47 248 4.0 6.0 0.06 0.05 0.07 91 1010.9
20260509052525 47 275 2.0 6.0 0.06 0.05 0.07 91 1010.8
20260509052025 47 238 3.0 7.0 0.06 0.05 0.07 91 1011.0
20260509051525 47 221 3.0 7.0 0.06 0.05 0.06 90 1010.9
20260509051026 47 228 4.0 7.0 0.05 0.05 0.05 90 1011.0
20260509050525 47 245 4.0 7.0 0.05 0.05 0.05 90 1011.0
20260509050025 47 228 3.0 5.0 0.05 0.05 0.05 90 1011.0
20260509045525 47 195 4.0 6.0 0.04 0.00 0.04 89 1010.8
20260509045025 47 244 3.0 7.0 0.04 0.00 0.04 89 1011.0
20260509044525 47 248 2.0 7.0 0.03 0.00 0.03 89 1011.1
20260509044026 47 247 3.0 7.0 0.03 0.00 0.03 88 1011.0
20260509043525 47 240 4.0 7.0 0.02 0.00 0.02 88 1011.0
20260509043025 48 269 4.0 7.0 0.01 0.00 0.01 87 1011.0
20260509042800 48 258 4.0 9.0 0.01 0.00 0.01 87 1011.0
20260509042301 48 279 3.0 9.0 0.01 0.00 0.00 86 1011.0
20260509041525 48 250 4.0 7.0 0.00 0.00 0.00 85 1011.0
20260509041025 48 274 5.0 9.0 0.00 0.00 0.00 84 1010.9
20260509040811 48 257 4.0 10.0 0.00 0.00 0.00 84 1011.0
20260509040025 48 231 4.0 10.0 0.00 0.00 0.00 82 1010.9
20260509035526 48 220 4.0 6.0 0.00 0.00 0.00 80 1010.9
20260509035025 48 192 2.0 5.0 0.00 0.00 0.00 79 1010.9
20260509034525 48 213 3.0 5.0 0.00 0.00 0.00 76 1011.0
20260509034025 48 180 1.0 3.0 0.00 0.00 0.00 76 1010.9
20260509033526 48 183 2.0 3.0 0.00 0.00 0.00 73 1010.9
20260509033026 48 217 1.0 2.0 0.00 0.00 0.00 72 1011.1
20260509032525 48 217 1.0 3.0 0.00 0.00 0.00 70 1011.1
20260509032026 48 217 1.0 3.0 0.00 0.00 0.00 71 1011.2
20260509031525 48 0 1.0 2.0 0.00 0.00 0.00 68 1011.2
20260509031026 49 0 0.0 2.0 0.00 0.00 0.00 72 1011.2
20260509030525 49 0 0.0 2.0 0.00 0.00 0.00 73 1011.3
20260509030025 49 0 1.0 2.0 0.00 0.00 0.00 72 1011.3
20260509025803 49 331 0.0 4.0 0.00 0.00 0.00 72 1011.3
20260509025026 49 331 2.0 4.0 0.00 0.00 0.00 71 1011.4
20260509024525 49 292 3.0 4.0 0.00 0.00 0.00 70 1011.4
20260509024025 50 227 0.0 3.0 0.00 0.00 0.00 69 1011.2
20260509023800 50 220 1.0 4.0 0.00 0.00 0.00 69 1011.4
20260509023025 50 111 2.0 4.0 0.00 0.00 0.00 68 1011.2
20260509022525 50 111 3.0 4.0 0.00 0.00 0.00 67 1011.0
20260509022025 50 44 1.0 3.0 0.00 0.00 0.00 63 1010.9
20260509021526 50 3 1.0 3.0 0.00 0.00 0.00 62 1010.9
20260509021025 50 17 1.0 4.0 0.00 0.00 0.00 62 1011.0
20260509020802 50 39 1.0 4.0 0.00 0.00 0.00 61 1010.9
20260509020048 50 16 2.0 3.0 0.00 0.00 0.00 60 1010.8
20260509020040 50 49 2.0 4.0 0.00 0.00 0.00 62 1010.9
20260509015025 51 3 0.0 3.0 0.00 0.00 0.00 62 1010.9
20260509014526 51 264 1.0 3.0 0.00 0.00 0.00 62 1010.8
20260509014025 51 237 2.0 3.0 0.00 0.00 0.00 62 1010.8
20260509013525 51 24 0.0 0.0 0.00 0.00 0.00 60 1010.7
20260509013026 51 24 0.0 2.0 0.00 0.00 0.00 60 1010.6
20260509012526 51 24 0.0 2.0 0.00 0.00 0.00 59 1010.5
20260509012025 51 24 1.0 2.0 0.00 0.00 0.00 58 1010.4
20260509011525 51 62 1.0 3.0 0.00 0.00 0.00 59 1010.2
20260509011025 51 62 1.0 3.0 0.00 0.00 0.00 58 1010.4
20260509010526 51 62 0.0 3.0 0.00 0.00 0.00 59 1010.2
20260509010026 51 62 1.0 4.0 0.00 0.00 0.00 59 1010.2
20260509005525 51 65 1.0 5.0 0.00 0.00 0.00 59 1010.2
20260509005025 51 80 4.0 5.0 0.00 0.00 0.00 59 1010.0
20260509004526 51 72 3.0 4.0 0.00 0.00 0.00 59 1010.1
20260509004024 51 102 2.0 5.0 0.00 0.00 0.00 60 1010.1
20260509003804 51 102 2.0 5.0 0.00 0.00 0.00 60 1010.0
20260509003026 52 109 3.0 4.0 0.00 0.00 0.00 61 1010.0
20260509002527 52 116 2.0 4.0 0.00 0.00 0.00 64 1010.1
20260509002025 52 107 4.0 4.0 0.00 0.00 0.00 64 1009.9
20260509001525 52 99 3.0 4.0 0.00 0.00 0.00 60 1009.9
20260509001025 53 73 0.0 4.0 0.00 0.00 0.00 58 1010.0
20260509000801 53 76 3.0 4.0 0.00 0.00 0.00 57 1009.7
20260509000025 53 68 2.0 4.0 0.00 0.00 0.00 55 1009.7
20260508235526 54 63 1.0 3.0 0.00 0.00 0.00 55 1009.6
20260508235025 54 79 1.0 3.0 0.00 0.00 0.00 55 1009.6
20260508234526 54 69 1.0 3.0 0.00 0.00 0.00 54 1009.5
20260508234025 55 66 0.0 2.0 0.00 0.00 0.00 54 1009.4
20260508233525 55 66 1.0 2.0 0.00 0.00 0.00 53 1009.4
20260508233024 55 66 0.0 3.0 0.00 0.00 0.00 53 1009.4
20260508232525 55 44 1.0 4.0 0.00 0.00 0.00 53 1009.3
20260508232300 56 17 2.0 4.0 0.00 0.00 0.00 51 1009.4
20260508231525 56 37 1.0 3.0 0.00 0.00 0.00 52 1009.4
20260508231027 56 37 0.0 4.0 0.00 0.00 0.00 52 1009.3
20260508230526 56 3 2.0 6.0 0.00 0.00 0.00 51 1009.4
20260508230024 56 116 1.0 6.0 0.00 0.00 0.00 50 1009.3
20260508225525 56 354 0.0 4.0 0.00 0.00 0.00 52 1009.2
20260508225025 56 278 2.0 4.0 0.00 0.00 0.00 52 1009.2
20260508224524 56 321 2.0 5.0 0.00 0.00 0.00 51 1009.2
20260508224325 56 269 2.0 5.0 0.00 0.00 0.00 49 1009.2
20260508224319 57 293 4.0 5.0 0.00 0.00 0.00 49 1009.2
20260508223025 57 243 4.0 6.0 0.00 0.00 0.00 49 1009.3
20260508222526 57 259 3.0 6.0 0.00 0.00 0.00 50 1009.4
20260508222026 58 299 3.0 10.0 0.00 0.00 0.00 49 1009.4
20260508221525 58 314 3.0 11.0 0.00 0.00 0.00 48 1009.2
20260508221303 58 307 6.0 11.0 0.00 0.00 0.00 47 1009.3
20260508220525 58 268 4.0 11.0 0.00 0.00 0.00 47 1009.4
20260508220025 58 310 4.0 10.0 0.00 0.00 0.00 49 1009.3
20260508215752 58 306 5.0 10.0 0.00 0.00 0.00 47 1009.3
20260508213026 58 326 3.0 9.0 0.00 0.00 0.00 52 1009.3
20260508212801 58 306 4.0 9.0 0.00 0.00 0.00 49 1009.3
20260508212301 58 0 2.0 10.0 0.00 0.00 0.00 53 1009.3
20260508211525 57 305 5.0 15.0 0.00 0.00 0.00 52 1009.3
20260508211024 57 289 10.0 15.0 0.00 0.00 0.00 49 1009.1
20260508210524 56 286 7.0 20.0 0.00 0.00 0.00 50 1009.1
20260508210024 56 300 13.0 20.0 0.00 0.00 0.00 50 1009.2
20260508205833 56 289 6.0 10.0 0.00 0.00 0.00 55 1009.4
20260508205024 56 293 4.0 10.0 0.00 0.00 0.00 52 1009.6
20260508204525 56 286 6.0 10.0 0.00 0.00 0.00 54 1009.7
20260508204024 56 334 4.0 9.0 0.00 0.00 0.00 57 1009.6
20260508203801 56 350 3.0 14.0 0.00 0.00 0.00 51 1009.7
20260508203259 56 234 6.0 14.0 0.00 0.00 0.00 53 1009.7
20260508202526 55 281 2.0 11.0 0.00 0.00 0.00 59 1009.8
20260508202025 55 289 4.0 11.0 0.00 0.00 0.00 55 1009.9
20260508201524 54 210 2.0 7.0 0.00 0.00 0.00 54 1009.9
20260508201025 54 282 3.0 10.0 0.00 0.00 0.00 57 1010.0
20260508200752 53 250 5.0 10.0 0.00 0.00 0.00 57 1010.1
20260508200024 53 285 3.0 6.0 0.00 0.00 0.00 59 1010.4
20260508195524 53 326 2.0 5.0 0.00 0.00 0.00 56 1010.4
20260508195305 53 333 2.0 6.0 0.00 0.00 0.00 58 1010.4
20260508194524 52 275 3.0 6.0 0.00 0.00 0.00 58 1010.5
20260508194024 52 0 0.0 4.0 0.00 0.00 0.00 58 1010.4
20260508193525 53 306 2.0 5.0 0.00 0.00 0.00 60 1010.4
20260508193024 53 313 1.0 14.0 0.00 0.00 0.00 59 1010.6
20260508192525 53 314 6.0 14.0 0.00 0.00 0.00 57 1010.6
20260508192026 53 278 9.0 14.0 0.00 0.00 0.00 58 1010.6
20260508191532 53 237 11.0 18.0 0.00 0.00 0.00 60 1010.7
20260508191524 53 257 9.0 16.0 0.00 0.00 0.00 57 1010.7
20260508190524 53 231 10.0 18.0 0.00 0.00 0.00 57 1010.6
20260508190024 53 285 12.0 18.0 0.00 0.00 0.00 58 1010.7
20260508185524 53 243 11.0 17.0 0.00 0.00 0.00 59 1010.8
20260508185024 53 276 7.0 13.0 0.00 0.00 0.00 58 1010.7
20260508184524 53 281 7.0 17.0 0.00 0.00 0.00 59 1010.7
20260508184025 53 206 7.0 17.0 0.00 0.00 0.00 60 1010.8
20260508183525 53 252 8.0 15.0 0.00 0.00 0.00 65 1011.0
20260508183025 52 343 5.0 9.0 0.00 0.00 0.00 70 1011.0
20260508182525 50 289 4.0 9.0 0.00 0.00 0.00 68 1011.0
20260508182024 50 282 4.0 10.0 0.00 0.00 0.00 67 1011.1
20260508181525 50 285 6.0 11.0 0.00 0.00 0.00 66 1011.2
20260508181026 50 226 4.0 11.0 0.00 0.00 0.00 65 1011.2
20260508180524 50 310 6.0 9.0 0.00 0.00 0.00 64 1011.4
20260508180025 50 302 3.0 7.0 0.00 0.00 0.00 65 1011.3
20260508175524 50 303 3.0 5.0 0.00 0.00 0.00 64 1011.2
20260508175025 50 276 2.0 7.0 0.00 0.00 0.00 64 1011.4
20260508174524 50 213 3.0 7.0 0.00 0.00 0.00 67 1011.4
20260508174025 50 245 3.0 9.0 0.00 0.00 0.00 66 1011.4
20260508173524 50 254 1.0 11.0 0.00 0.00 0.00 66 1011.5
20260508173025 50 274 4.0 12.0 0.00 0.00 0.00 64 1011.6
20260508172525 51 272 8.0 12.0 0.00 0.00 0.00 66 1011.6
20260508172026 51 292 2.0 12.0 0.00 0.00 0.00 67 1011.6
20260508171524 51 312 3.0 12.0 0.00 0.00 0.00 68 1011.7
20260508171030 50 1 5.0 9.0 0.00 0.00 0.00 68 1011.6
20260508170300 49 343 5.0 9.0 0.00 0.00 0.00 68 1011.7
20260508165759 49 319 5.0 9.0 0.00 0.00 0.00 68 1011.7
20260508165024 49 1 2.0 10.0 0.00 0.00 0.00 70 1011.7
20260508164524 49 286 4.0 10.0 0.00 0.00 0.00 69 1011.7
20260508164025 49 302 4.0 15.0 0.00 0.00 0.00 69 1011.7
20260508163524 49 323 5.0 15.0 0.00 0.00 0.00 70 1011.8
20260508163025 49 303 5.0 14.0 0.00 0.00 0.00 71 1011.8
20260508162525 49 293 3.0 10.0 0.00 0.00 0.00 71 1012.0
20260508162025 49 292 4.0 13.0 0.00 0.00 0.00 70 1011.9
20260508161525 48 281 3.0 14.0 0.00 0.00 0.00 71 1012.1
20260508161255 48 278 9.0 14.0 0.00 0.00 0.00 73 1012.0
20260508160523 48 264 7.0 13.0 0.00 0.00 0.00 74 1012.0
20260508160024 48 49 5.0 13.0 0.00 0.00 0.00 72 1012.2
20260508155524 48 323 8.0 20.0 0.00 0.00 0.00 76 1012.0
20260508155024 47 261 11.0 20.0 0.00 0.00 0.00 75 1012.0
20260508154759 47 264 6.0 13.0 0.00 0.00 0.00 75 1011.9
20260508154300 47 272 6.0 13.0 0.00 0.00 0.00 76 1011.9
20260508153524 47 298 8.0 13.0 0.00 0.00 0.00 76 1011.9
20260508153024 47 285 3.0 11.0 0.00 0.00 0.00 76 1011.9
20260508152747 47 209 3.0 11.0 0.00 0.00 0.00 79 1011.8
20260508151025 46 327 3.0 10.0 0.00 0.00 0.00 77 1012.0
20260508150802 46 300 5.0 12.0 0.00 0.00 0.00 79 1012.0
20260508150307 45 189 4.0 12.0 0.00 0.00 0.00 80 1011.8
20260508145306 44 330 3.0 5.0 0.00 0.00 0.00 79 1011.9
20260508144023 44 350 4.0 9.0 0.00 0.00 0.00 78 1011.9
20260508143525 44 293 4.0 7.0 0.00 0.00 0.00 79 1011.9
20260508143025 44 31 4.0 7.0 0.00 0.00 0.00 79 1011.7
20260508142800 44 319 3.0 7.0 0.00 0.00 0.00 79 1011.6
20260508142024 44 0 2.0 5.0 0.00 0.00 0.00 79 1011.5
20260508141546 44 306 3.0 14.0 0.00 0.00 0.00 78 1011.5
20260508141538 44 276 1.0 9.0 0.00 0.00 0.00 79 1011.5
20260508140524 44 296 7.0 14.0 0.00 0.00 0.00 78 1011.4
20260508140024 44 281 6.0 12.0 0.00 0.00 0.00 79 1011.4
20260508135551 42 276 4.0 6.0 0.00 0.00 0.00 82 1011.3
20260508135543 43 274 4.0 6.0 0.00 0.00 0.00 80 1011.4
20260508134524 42 314 1.0 5.0 0.00 0.00 0.00 81 1011.4
20260508134024 42 292 2.0 4.0 0.00 0.00 0.00 83 1011.5
20260508133800 41 271 1.0 5.0 0.00 0.00 0.00 82 1011.5
20260508133026 41 303 2.0 5.0 0.00 0.00 0.00 82 1011.4
20260508132524 41 286 3.0 5.0 0.00 0.00 0.00 82 1011.3
20260508132024 41 300 3.0 5.0 0.00 0.00 0.00 82 1011.4
20260508131524 40 320 3.0 5.0 0.00 0.00 0.00 83 1011.4
20260508131025 40 296 1.0 4.0 0.00 0.00 0.00 83 1011.1
20260508130523 40 302 2.0 4.0 0.00 0.00 0.00 83 1011.3
20260508130024 40 340 2.0 5.0 0.00 0.00 0.00 82 1011.4
20260508125524 40 231 2.0 5.0 0.00 0.00 0.00 83 1011.3
20260508125023 40 189 3.0 5.0 0.00 0.00 0.00 85 1011.1
20260508124524 40 179 2.0 4.0 0.00 0.00 0.00 84 1011.1
20260508124024 39 179 2.0 4.0 0.00 0.00 0.00 85 1011.1
20260508123524 39 168 2.0 4.0 0.00 0.00 0.00 85 1011.0
20260508123024 39 180 2.0 4.0 0.00 0.00 0.00 85 1011.0
20260508122759 39 168 3.0 4.0 0.00 0.00 0.00 84 1011.0
20260508122023 38 209 3.0 5.0 0.00 0.00 0.00 84 1011.0
20260508121524 39 180 4.0 5.0 0.00 0.00 0.00 85 1010.9
20260508121023 38 133 4.0 5.0 0.00 0.00 0.00 84 1011.0
20260508120524 38 161 3.0 4.0 0.00 0.00 0.00 84 1011.0
20260508120258 38 168 2.0 3.0 0.00 0.00 0.00 83 1011.1
20260508115524 38 110 0.0 0.0 0.00 0.00 0.00 83 1011.1
20260508115301 38 244 0.0 2.0 0.00 0.00 0.00 82 1011.1
20260508114758 38 354 0.0 2.0 0.00 0.00 0.00 82 1011.2
20260508114024 38 341 0.0 3.0 0.00 0.00 0.00 82 1011.3
20260508113800 38 261 2.0 3.0 0.00 0.00 0.00 83 1011.3
20260508113024 39 154 1.0 3.0 0.00 0.00 0.00 83 1011.2
20260508112523 38 142 2.0 3.0 0.00 0.00 0.00 84 1011.0
20260508112024 38 134 0.0 3.0 0.00 0.00 0.00 84 1011.0
20260508111525 38 135 2.0 4.0 0.00 0.00 0.00 85 1010.9
20260508111023 38 151 3.0 4.0 0.00 0.00 0.00 85 1010.9
20260508110523 38 159 2.0 4.0 0.00 0.00 0.00 85 1010.9
20260508110040 37 185 0.0 2.0 0.00 0.00 0.00 84 1010.8
20260508105023 37 212 1.0 4.0 0.00 0.00 0.00 84 1010.9
20260508104524 37 210 2.0 4.0 0.00 0.00 0.00 83 1010.9
20260508104024 37 204 2.0 4.0 0.00 0.00 0.00 83 1010.9
20260508103800 37 186 2.0 4.0 0.00 0.00 0.00 83 1010.8
20260508103024 37 238 1.0 3.0 0.00 0.00 0.00 83 1010.8
20260508102800 37 238 1.0 3.0 0.00 0.00 0.00 83 1010.9
20260508102306 37 238 2.0 3.0 0.00 0.00 0.00 83 1010.9
20260508101523 37 238 1.0 3.0 0.00 0.00 0.00 84 1010.9
20260508101024 37 276 1.0 2.0 0.00 0.00 0.00 84 1010.9
20260508100524 37 268 0.0 1.0 0.00 0.00 0.00 84 1010.8
20260508100024 37 268 0.0 4.0 0.00 0.00 0.00 84 1010.8
20260508095524 37 268 1.0 4.0 0.00 0.00 0.00 84 1010.9
20260508095023 37 268 3.0 4.0 0.00 0.00 0.00 84 1011.0
20260508094523 37 262 3.0 4.0 0.00 0.00 0.00 84 1011.2
20260508094024 37 250 3.0 5.0 0.00 0.00 0.00 84 1011.1
20260508093524 37 286 3.0 5.0 0.00 0.00 0.00 84 1011.1
20260508093023 37 286 3.0 5.0 0.00 0.00 0.00 84 1011.2
20260508092523 37 286 3.0 5.0 0.00 0.00 0.00 84 1011.1
20260508092300 37 286 3.0 4.0 0.00 0.00 0.00 83 1011.2
20260508091522 37 286 2.0 5.0 0.00 0.00 0.00 83 1011.3
20260508091023 37 310 4.0 5.0 0.00 0.00 0.00 83 1011.4
20260508090523 37 279 3.0 4.0 0.00 0.00 0.00 83 1011.2